Notices

What's New in latest Release from April 7th, 2021:

- Updated Glossary, including Speed of Maximum Gust, and Total Hourly Precipitation

- Updated national and regional climate services offices contacts and prices information

- Addition of station inventory lists for 1981-2010, 1971-2000, and 1961-1990 Normals.

If you haven't already, please take our survey and provide feedback about our website: https://eccc.sondage-survey.ca/f/LanguageSelection.aspx?s=442ca660-fcf1-47c0-95a9-59707d6fd709

Hourly Data Report for July 09, 2018

TORONTO CITY
ONTARIO
Current Station Operator: ECCC - MSC

43°40'00.000" N
79°24'00.000" W
112.50 m
6158355
71508
XTO

Download Data

Hourly Data (July 2018)
Hourly Data Report for July 9, 2018
TIME
LST
Temp Definition
°C
Dew Point Definition
°C
Rel Hum Definition
%
Precip. Amount Definition
mm

Wind Dir Definition
10's deg

Wind Spd Definition
km/h
Visibility Definition
km
Stn Press Definition
kPa
Hmdx Definition


Wind Chill Definition


Weather Definition


00:00 20.3 8.3 46 0.0 LegendMM LegendMM   100.94     LegendNANA
01:00 19.5 8.4 49 0.0 LegendMM LegendMM   100.96     LegendNANA
02:00 19.1 8.2 49 0.0 LegendMM LegendMM   100.94     LegendNANA
03:00 19.0 10.2 57 0.0 LegendMM LegendMM   100.88     LegendNANA
04:00 17.9 10.2 61 0.0 LegendMM LegendMM   100.87     LegendNANA
05:00 17.2 9.4 60 0.0 LegendMM LegendMM   100.87     LegendNANA
06:00 18.4 10.1 58 0.0 LegendMM LegendMM   100.84     LegendNANA
07:00 20.7 10.3 51 0.0 LegendMM LegendMM   100.81     LegendNANA
08:00 22.9 11.7 49 0.0 LegendMM LegendMM   100.83 25   LegendNANA
09:00 24.7 13.0 48 0.0 LegendMM LegendMM   100.77 27   LegendNANA
10:00 25.8 13.1 45 0.0 LegendMM LegendMM   100.73 29   LegendNANA
11:00 27.1 14.0 44 0.0 LegendMM LegendMM   100.69 30   LegendNANA
12:00 29.1 12.5 36 0.0 LegendMM LegendMM   100.62 32   LegendNANA
13:00 30.4 12.5 33 0.0 LegendMM LegendMM   100.55 33   LegendNANA
14:00 31.0 11.2 30 0.0 LegendMM LegendMM   100.49 33   LegendNANA
15:00 30.8 12.3 32 0.0 LegendMM LegendMM   100.43 33   LegendNANA
16:00 31.3 11.3 29 0.0 LegendMM LegendMM   100.35 33   LegendNANA
17:00 29.9 12.9 35 0.0 LegendMM LegendMM   100.29 33   LegendNANA
18:00 28.3 14.3 43 0.0 LegendMM LegendMM   100.26 32   LegendNANA
19:00 26.6 16.0 52 0.0 LegendMM LegendMM   100.27 31   LegendNANA
20:00 28.0 15.1 45 0.0 LegendMM LegendMM   100.31 32   LegendNANA
21:00 27.1 14.9 47 0.0 LegendMM LegendMM   100.33 31   LegendNANA
22:00 26.2 15.0 50 0.0 LegendMM LegendMM   100.31 30   LegendNANA
23:00 25.0 15.5 56 0.0 LegendMM LegendMM   100.26 29   LegendNANA

Notes on Data Quality.

Legend

  • E = Estimated
  • M = Missing
  • NA = Not Available*
  • [empty] = Indicates an unobserved value
Date modified: